Location: Newark
(50.0306°N, 2.3272°E)
Time: 15:19:32
(UTC+00:00)

Vanguard 1 Rocket - Pass Details

Date: 11 December 2019
Orbit: 650 x 4226 km, 34.3° (Epoch: 19 January)

Event Time Altitude Azimuth Distance (km) Brightness Sun altitude
Rises 22:31:08 0° 250° (WSW) 7,110 12.1 -59.5°
Reaches altitude 10° 22:37:11 10° 243° (WSW) 5,480 11.3 -60.0°
Enters shadow 22:38:23 12° 241° (WSW) 5,148 11.2 -60.1°
Maximum altitude 22:49:10 33° 188° (S) 2,648 - -60.9°
Drops below altitude 10° 22:56:08 10° 127° (SE) 3,146 - -61.4°
Sets 22:58:36 0° 117° (ESE) 3,805 - -61.6°
